Regional Weather Roundup
Issued by NWS

Home | Current Version | Previous Version | Graphics & Text | Print | Product List | Glossary On
Versions: 1 2 3 4 5 6 7 8 9 10 11 12 13 14 15 16 17 18 19 20 21 22 23 24 25 26 27 28 29 30 31 32 33 34 35 36 37 38 39 40 41 42 43 44 45 46 47 48 49 50
000
ASUS43 KIND 212100
RWRIN

WEATHER ROUNDUP FOR INDIANA
NATIONAL WEATHER SERVICE INDIANAPOLIS IN
500 PM EDT SAT OCT 21 2017

NOTE: "FAIR" INDICATES FEW OR NO CLOUDS BELOW 12,000 FEET WITH NO
SIGNIFICANT WEATHER AND/OR OBSTRUCTIONS TO VISIBILITY.

* - STATION DOES NOT REPORT WEATHER SUCH AS PRECIPITATION OR FOG.

+ - STATION NOT QUALITY CONTROLLED BY THE NATIONAL WEATHER SERVICE.
    USE DATA WITH CAUTION...ESPECIALLY DEWPOINT AND RELATIVE
    HUMIDITY OBSERVATIONS.

INZ001>003-010>013-019-020-212200-
NORTHWEST INDIANA

CITY           SKY/WX    TMP DP  RH WIND       PRES   REMARKS
GARY /AIRPORT/ PTSUNNY   77  55  47 S14G25    30.02F
MONTICELLO +   SUNNY     74  55  51 S10       30.08F
RENSSELAER +   PTSUNNY   73  46  38 S13       30.07S

$$

LMZ046-743>745-212200-
SOUTHERN LAKE MICHIGAN

STATION/POSITION TIME  TEMP    WIND        PRES    WAVE
                       AIR SEA DIR/SP/G            HT
                 (UTC) (F)     (DEG/KT/KT) (MB)    (FT)
BURNS HARBOR     2040   74     180/ 15/ 23 1016.9F
MICHIGAN CITY    2030   74     160/ 16/ 20   N/A
5NW MICH CITY    2050   69 58  190/ 14/ 17   N/A     2

$$

INZ004-005-014>016-021>024-212200-
NORTH CENTRAL INDIANA

CITY           SKY/WX    TMP DP  RH WIND       PRES   REMARKS
ELKHART        SUNNY     73  52  46 S13       30.10S
GOSHEN         SUNNY     73  50  44 S14       30.11R
PERU/GRISSOM   SUNNY     75  54  47 S14       30.11F
SOUTH BEND     SUNNY     74  55  51 S17       30.09S

$$

INZ006>009-017-018-025>027-212200-
NORTHEAST INDIANA

CITY           SKY/WX    TMP DP  RH WIND       PRES   REMARKS
FORT WAYNE     PTSUNNY   74  39  28 S15       30.15S
KENDALLVILLE + SUNNY     73  41  31 S10G20    30.14S

$$

INZ028-029-035-036-043>045-051>053-212200-
WEST CENTRAL INDIANA

CITY           SKY/WX    TMP DP  RH WIND       PRES   REMARKS
LAFAYETTE      CLOUDY    75  58  55 S9G20     30.08F
TERRE HAUTE    PTSUNNY   75  56  51 S13       30.09F

$$

INZ030>032-037>040-046>048-054>057-064-065-212200-
CENTRAL INDIANA

CITY           SKY/WX    TMP DP  RH WIND       PRES   REMARKS
COLUMBUS       MOSUNNY   73  43  33 S12       30.17F
GREENWOOD *+   SUNNY     78  52  40 S9        30.16S
INDIANAPOLIS   NOT AVBL
-EAGLE CREEK   SUNNY     74  50  42 SE8       30.13S
KOKOMO +       SUNNY     74  54  49 S13       30.14S
MT COMFORT *+  SUNNY     73  55  53 S10G17    30.16S
SHELBYVILLE    SUNNY     75  50  41 S13       30.15F

$$

INZ033-034-041-042-049-050-058-059-212200-
EAST CENTRAL INDIANA

CITY           SKY/WX    TMP DP  RH WIND       PRES   REMARKS
MUNCIE         SUNNY     76  45  33 S10       30.15F
RICHMOND +     SUNNY     72  43  35 S14       30.21S

$$

INZ060-061-067>069-081>083-085>088-212200-
SOUTHWEST INDIANA

CITY           SKY/WX    TMP DP  RH WIND       PRES   REMARKS
EVANSVILLE     PTSUNNY   75  54  47 SE5       30.13S
HUNTINGBURG +  CLOUDY    72  55  55 SE13      30.14F

$$

INZ062-063-066-070>080-084-089>092-212200-
SOUTH CENTRAL AND SOUTHEAST INDIANA

CITY           SKY/WX    TMP DP  RH WIND       PRES   REMARKS
BLOOMINGTON    SUNNY     75  52  44 S14       30.14F
MADISON *+     MOSUNNY   72  41  33 S5        30.21F
SEYMOUR +      MOSUNNY   77  52  41 S9        30.17F

$$




USA.gov is the U.S. government's official web portal to all federal, state and local government web resources and services.